Stations météo

réclame
Mon MeteoGroup
Berus, Allemagne (10704): Température de l'air & dewpoint: 10.11.2018 00:00:00 - 16.11.2018 00:00:00 (CET)Berus, Allemagne (10704): Température de l'air 5cm & Température de l'air -5cm: 10.11.2018 00:00:00 - 16.11.2018 00:00:00 (CET)Berus, Allemagne (10704): Température de l'air -20cm & Température de l'air -100cm: 10.11.2018 00:00:00 - 16.11.2018 00:00:00 (CET)Berus, Allemagne (10704): Vitesse du vent & gusts: 10.11.2018 00:00:00 - 16.11.2018 00:00:00 (CET)Berus, Allemagne (10704): Direction du vent: 10.11.2018 00:00:00 - 16.11.2018 00:00:00 (CET)Berus, Allemagne (10704): reduced air pressure: 10.11.2018 00:00:00 - 16.11.2018 00:00:00 (CET)Berus, Allemagne (10704): visibility: 10.11.2018 00:00:00 - 16.11.2018 00:00:00 (CET)Berus, Allemagne (10704): Ensoleillement: 10.11.2018 00:00:00 - 16.11.2018 00:00:00 (CET)Berus, Allemagne (10704): Quantités de précipitations: 10.11.2018 00:00:00 - 16.11.2018 00:00:00 (CET)
Date & Time tt [°C] td [°C] tt 5cm [°C] tt -5cm [°C] tt -20cm [°C] tt -100cm [°C] ff [km/h] ff [knt] fx [km/h] fx [knt] dd ppp [hPa] vv [km] sd [min] rr [mm]
16.11.2018 00:00:00 3,3 3,3 3,5 6,7 8,4 12,2 17 9 27 15 ENE 1027,4 0,1 0 0,0
15.11.2018 23:00:00 3,6 3,6 3,8 6,8 8,4 12,2 16 9 26 14 ENE 1027,5 0,1 0 0,0
15.11.2018 22:00:00 4,0 4,0 4,2 6,9 8,5 12,2 12 7 24 13 ENE 1027,3 0,1 0 0,0
15.11.2018 21:00:00 4,1 4,1 4,3 7,0 8,5 12,2 16 8 26 14 ENE 1027,2 0,1 0 0,0
15.11.2018 20:00:00 4,3 4,3 4,5 7,1 8,6 12,2 18 10 29 16 ENE 1027,0 0,1 0 0,0
15.11.2018 19:00:00 4,5 4,5 4,6 7,2 8,6 12,2 13 7 25 13 ENE 1026,8 0,1 0 0,0
15.11.2018 18:00:00 4,4 4,4 4,6 7,3 8,6 12,2 16 9 25 13 ENE 1026,6 0,1 0 0,0
15.11.2018 17:00:00 4,3 4,3 4,6 7,5 8,6 12,3 12 7 25 13 ENE 1026,7 0,1 0 0,0
15.11.2018 16:00:00 4,4 4,4 4,7 7,6 8,6 12,3 18 10 24 13 ENE 1026,8 0,1 0 0,0
15.11.2018 15:00:00 4,4 4,4 4,9 7,7 8,6 12,3 14 8 26 14 ENE 1026,9 0,1 0 0,0
15.11.2018 14:00:00 4,5 4,5 5,2 7,7 8,6 12,3 15 8 24 13 NE 1026,9 0,1 0 0,0
15.11.2018 13:00:00 4,6 4,6 5,2 7,6 8,6 12,3 9 5 19 11 ENE 1027,3 0,1 0 0,0
15.11.2018 12:00:00 4,6 4,6 5,2 7,4 8,6 12,3 13 7 22 12 NE 1027,5 0,1 0 0,0
15.11.2018 11:00:00 4,5 4,5 5,1 7,3 8,6 12,3 13 7 23 12 ENE 1027,7 0,1 0 0,0
15.11.2018 10:00:00 4,4 4,4 4,9 7,1 8,6 12,3 14 8 23 12 ENE 1027,7 0,1 0 0,0
15.11.2018 09:00:00 4,2 4,2 4,5 7,0 8,7 12,3 12 7 21 12 ENE 1027,7 0,1 0 0,0
15.11.2018 08:00:00 4,1 4,1 4,3 7,0 8,7 12,3 14 7 21 12 ENE 1027,3 0,1 0 0,0
15.11.2018 07:00:00 4,2 4,2 4,4 7,1 8,8 12,3 11 6 22 12 ENE 1027,4 0,1 0 0,0
15.11.2018 06:00:00 4,3 4,3 4,4 7,1 8,8 12,3 13 7 26 14 ENE 1027,3 0,1 0 0,0
15.11.2018 05:00:00 4,3 4,3 4,5 7,2 8,9 12,3 13 7 25 14 ENE 1027,5 0,1 0 0,0
15.11.2018 04:00:00 4,1 4,1 4,3 7,3 8,9 12,3 15 8 29 15 ENE 1027,5 0,1 0 0,0
15.11.2018 03:00:00 4,4 4,4 4,6 7,4 9,0 12,3 16 9 27 14 NE 1027,7 0,1 0 0,0
15.11.2018 02:00:00 4,9 4,9 5,0 7,5 9,0 12,3 14 8 23 12 ENE 1027,6 0,1 0 0,0
15.11.2018 01:00:00 5,0 5,0 5,1 7,5 9,1 12,3 11 6 18 10 ENE 1027,4 0,1 0 0,0
15.11.2018 00:00:00 5,2 5,2 5,3 7,4 9,2 12,3 10 6 17 9 ENE 1027,5 0,1 0 0,0
14.11.2018 23:00:00 5,0 5,0 5,2 7,4 9,3 12,3 10 5 15 8 ENE 1027,7 0,1 0 0,0
14.11.2018 22:00:00 4,7 4,7 4,8 7,3 9,4 12,3 13 7 19 10 NE 1027,9 0,1 0 0,0
14.11.2018 21:00:00 4,1 4,1 4,2 7,3 9,6 12,3 16 9 20 11 NE 1028,1 0,1 0 0,0
14.11.2018 20:00:00 5,9 5,7 2,8 7,8 9,7 12,3 9 5 14 8 ENE 1028,1 10 0 0,0
14.11.2018 19:00:00 7,5 5,3 4,4 8,4 9,8 12,3 8 4 14 7 E 1027,9 55 0 0,0
14.11.2018 18:00:00 8,6 6,4 6,0 9,1 9,8 12,3 9 5 13 7 SSE 1027,7 46 0 0,0
14.11.2018 17:00:00 9,0 7,0 4,0 10,0 9,7 12,3 8 4 9 5 ENE 1027,6 37 34 0,0
14.11.2018 16:00:00 10,7 6,8 8,5 10,9 9,5 12,3 3 2 6 3 E 1027,6 44 60 0,0
14.11.2018 15:00:00 10,5 6,8 15,2 11,3 9,2 12,3 4 2 9 5 NNE 1027,6 50 60 0,0
14.11.2018 14:00:00 10,4 7,0 14,0 10,8 8,9 12,3 6 3 11 6 E 1027,7 32 60 0,0
14.11.2018 13:00:00 8,7 6,2 12,2 9,8 8,7 12,3 5 3 13 7 E 1028,5 30 59 0,0
14.11.2018 12:00:00 6,0 5,8 9,9 8,5 8,6 12,3 8 5 16 9 NE 1029,4 0,7 39 0,0
14.11.2018 11:00:00 4,5 4,5 7,2 7,4 8,6 12,3 13 7 19 10 NE 1029,9 0,1 11 0,0
14.11.2018 10:00:00 3,4 3,4 5,5 6,5 8,6 12,3 11 6 19 11 NE 1030,3 0,1 25 0,0
14.11.2018 09:00:00 2,8 2,8 3,9 6,1 8,7 12,3 10 5 18 10 NE 1030,6 0,1 1 0,0
14.11.2018 08:00:00 3,0 3,0 3,2 6,1 8,8 12,3 8 5 13 7 NE 1030,8 0,1 0 0,0
14.11.2018 07:00:00 3,1 3,1 3,2 6,1 9,0 12,3 9 5 11 6 NE 1030,9 0,1 0 0,0
14.11.2018 06:00:00 3,8 3,8 3,4 6,1 9,1 12,3 5 3 11 6 E 1030,9 0,2 0 0,0
14.11.2018 05:00:00 4,4 4,4 3,5 6,2 9,3 12,3 8 4 14 7 ENE 1031,1 0,1 0 0,0
14.11.2018 04:00:00 4,5 4,5 4,0 6,2 9,4 12,3 8 5 14 7 ENE 1031,7 0,2 0 0,0
14.11.2018 03:00:00 5,5 5,3 3,6 6,2 9,7 12,3 6 3 9 5 NNE 1031,9 4,0 0 0,0
14.11.2018 02:00:00 6,0 6,0 1,6 6,5 9,9 12,3 5 3 10 5 SW 1031,7 17 0 0,0
14.11.2018 01:00:00 5,9 5,8 1,7 6,9 10,1 12,3 6 4 9 5 S 1031,9 13 0 0,0
14.11.2018 00:00:00 6,0 5,7 3,0 7,3 10,3 12,3 8 5 15 8 SW 1031,9 25 0 0,0
13.11.2018 23:00:00 6,7 6,0 4,9 7,7 10,5 12,3 10 6 13 7 SW 1031,8 33 0 0,0
13.11.2018 22:00:00 6,4 5,8 4,2 8,1 10,7 12,3 11 6 16 8 SW 1031,9 40 0 0,0
13.11.2018 21:00:00 6,9 5,9 5,4 8,5 10,9 12,3 12 6 20 11 SW 1031,6 51 0 0,0
13.11.2018 20:00:00 7,4 6,3 5,9 9,0 11,1 12,3 13 7 19 10 WSW 1031,4 50 0 0,0
13.11.2018 19:00:00 7,8 6,6 6,2 9,6 11,2 12,3 14 7 18 10 WSW 1031,1 43 0 0,0
13.11.2018 18:00:00 8,2 6,6 6,7 10,3 11,3 12,3 14 8 21 12 SW 1030,5 57 0 0,0
13.11.2018 17:00:00 9,5 6,7 8,0 11,0 11,3 12,3 16 9 27 14 SW 1029,7 54 27 0,0
13.11.2018 16:00:00 10,0 6,7 9,1 11,7 11,3 12,3 18 10 33 18 SW 1028,9 75 23 0,0
13.11.2018 15:00:00 11,2 7,3 11,6 11,8 11,2 12,3 21 11 34 18 WSW 1028,4 75 19 0,0
13.11.2018 14:00:00 11,5 8,0 12,8 11,7 11,1 12,3 21 11 43 23 SW 1028,3 68 19 0,0
13.11.2018 13:00:00 11,9 8,8 13,6 11,5 11,0 12,3 20 11 44 24 WSW 1027,9 56 23 0,0
13.11.2018 12:00:00 10,7 9,1 11,7 10,6 11,0 12,3 22 12 32 18 WSW 1027,6 65 11 0,0
13.11.2018 11:00:00 9,4 9,0 9,5 10,3 11,1 12,3 23 12 37 20 SW 1027,6 43 0 0,0
13.11.2018 10:00:00 9,0 8,8 9,0 10,1 11,2 12,3 16 9 42 23 SW 1027,1 73 4 0,0
13.11.2018 09:00:00 9,1 9,1 9,0 10,3 11,2 12,3 27 15 45 24 WSW 1025,9 8 0 2,0
13.11.2018 08:00:00 8,9 8,8 8,8 10,4 11,3 12,3 15 8 31 17 SW 1024,9 33 0 0,1
13.11.2018 07:00:00 9,1 8,9 8,9 10,6 11,4 12,3 17 9 25 13 SSW 1023,8 38 0 0,2
13.11.2018 06:00:00 9,4 9,4 9,3 10,7 11,5 12,3 19 10 28 15 SSW 1023,0 25 0 0,5
13.11.2018 05:00:00 9,7 9,6 9,5 10,9 11,6 12,3 17 9 31 17 SW 1022,9 25 0 1,0
13.11.2018 04:00:00 10,0 10,0 9,9 11,0 11,6 12,3 18 10 26 14 SSW 1022,5 9 0 1,1
13.11.2018 03:00:00 9,9 9,9 9,9 11,2 11,7 12,3 12 6 15 8 SSW 1022,2 0,2 0 2,4
13.11.2018 02:00:00 10,0 10,0 9,9 11,3 11,8 12,3 9 5 16 8 WSW 1021,5 5 0 0,5
13.11.2018 01:00:00 10,2 10,2 10,1 11,5 11,8 12,3 11 6 15 8 SW 1021,2 0,3 0 0,2
13.11.2018 00:00:00 10,3 10,3 10,1 11,7 11,9 12,3 3 2 16 9 SSE 1020,5 3,1 0 0,1
12.11.2018 23:00:00 10,7 10,7 10,5 12,0 11,9 12,2 10 6 24 13 W 1020,4 12 0 1,3
12.11.2018 22:00:00 11,3 11,3 11,2 12,1 12,0 12,3 14 8 22 12 WSW 1019,8 4,9 0 1,9
12.11.2018 21:00:00 11,7 11,7 11,5 12,4 12,0 12,2 16 8 36 20 SW 1019,4 10 0 3,0
12.11.2018 20:00:00 12,5 12,5 12,3 12,6 11,9 12,2 19 10 27 15 SSW 1019,1 3,8 0 0,9
12.11.2018 19:00:00 12,7 12,7 12,6 12,8 11,9 12,2 10 6 22 12 SSW 1018,4 0,5 0 0,8
12.11.2018 18:00:00 12,9 12,9 12,8 13,0 11,8 12,2 11 6 19 10 S 1017,6 0,5 0 1,9
12.11.2018 17:00:00 13,1 13,1 12,9 13,4 11,7 12,2 13 7 36 19 SW 1017,0 6 0 1,2
12.11.2018 16:00:00 14,1 13,0 13,6 13,8 11,5 12,2 23 12 45 24 WSW 1016,0 23 6 2,5
12.11.2018 15:00:00 18,6 11,6 19,2 13,7 11,3 12,2 23 13 40 21 SSW 1014,2 67 53 0,0
12.11.2018 14:00:00 18,9 11,7 20,0 12,8 11,1 12,2 29 16 45 25 SSW 1014,0 75 31 0,0
12.11.2018 13:00:00 16,8 10,7 16,6 12,3 11,0 12,2 29 16 47 25 SSW 1014,4 75 0 0,0
12.11.2018 12:00:00 16,4 10,3 16,0 12,0 10,9 12,2 31 17 52 28 SSW 1014,4 70 0 0,0
12.11.2018 11:00:00 15,9 9,8 15,6 11,6 10,8 12,2 32 18 49 27 SSW 1014,3 75 0 0,0
12.11.2018 10:00:00 15,7 9,0 15,3 11,3 10,7 12,2 28 15 48 26 SSW 1013,9 75 0 0,0
12.11.2018 09:00:00 15,2 9,2 14,7 10,9 10,7 12,2 29 16 48 26 SSW 1013,6 75 0 0,0
12.11.2018 08:00:00 14,5 9,7 13,6 10,7 10,7 12,2 26 14 35 19 SSW 1013,4 75 0 0,0
12.11.2018 07:00:00 14,1 9,8 13,3 10,6 10,6 12,2 22 12 - - SSW 1013,0 74 0 0,0
12.11.2018 06:00:00 13,7 10,0 12,9 10,5 10,6 12,2 26 14 36 20 SSW 1012,6 58 0 0,0
12.11.2018 05:00:00 13,0 9,7 12,1 10,4 10,6 12,2 14 8 20 11 S 1012,8 62 0 0,0
12.11.2018 04:00:00 12,9 9,7 12,0 10,3 10,7 12,2 15 8 26 14 S 1013,0 63 0 0,0
12.11.2018 03:00:00 12,3 9,7 11,3 10,3 10,7 12,2 11 6 23 12 S 1013,4 68 0 0,0
12.11.2018 02:00:00 11,8 10,0 10,8 10,3 10,7 12,2 15 8 23 12 SSW 1013,6 58 0 0,0
12.11.2018 01:00:00 12,0 10,6 10,8 10,3 10,8 12,2 9 5 15 8 SE 1013,7 55 0 0,0
12.11.2018 00:00:00 11,2 10,3 9,4 10,5 10,8 12,2 8 4 11 6 NE 1013,9 52 0 0,1
11.11.2018 23:00:00 11,5 10,1 10,4 10,6 10,8 12,2 6 3 16 9 NNW 1013,8 26 0 0,0
11.11.2018 22:00:00 12,3 10,1 11,4 10,7 10,8 12,2 9 5 41 22 WNW 1013,9 73 0 0,0
11.11.2018 21:00:00 13,5 11,0 12,1 10,6 10,8 12,2 23 13 40 22 SW 1012,2 72 0 0,1
11.11.2018 20:00:00 12,8 10,4 11,6 10,5 10,9 12,2 21 12 31 17 S 1011,5 63 0 0,0
11.11.2018 19:00:00 12,7 9,9 11,2 10,7 10,9 12,2 17 9 29 16 S 1011,2 62 0 0,0
11.11.2018 18:00:00 13,2 9,3 12,0 11,0 10,9 12,2 20 11 29 16 S 1011,2 75 0 0,0
11.11.2018 17:00:00 13,7 8,7 12,2 11,4 10,8 12,2 21 12 41 22 SSW 1011,0 72 31 0,0
11.11.2018 16:00:00 14,8 8,3 13,5 11,9 10,7 12,2 29 15 47 26 S 1010,0 52 46 0,0
11.11.2018 15:00:00 13,7 8,9 13,5 11,9 10,6 12,2 26 14 43 23 SSW 1010,5 73 1 0,0
11.11.2018 14:00:00 13,8 9,1 14,2 11,7 10,4 12,2 23 13 34 18 SSW 1010,7 71 3 0,0
11.11.2018 13:00:00 12,4 8,8 12,2 11,7 10,3 12,2 19 10 37 20 S 1011,5 69 1 0,0
11.11.2018 12:00:00 12,3 9,0 13,0 11,3 10,1 12,2 23 12 37 20 S 1011,0 56 29 0,0
11.11.2018 11:00:00 11,8 8,9 13,3 10,5 10,1 12,2 23 12 37 20 S 1010,9 62 42 0,0
11.11.2018 10:00:00 11,0 8,7 11,8 9,3 10,1 12,2 22 12 38 21 SSW 1010,8 42 58 0,0
11.11.2018 09:00:00 9,2 8,2 8,7 9,1 10,2 12,2 23 12 34 19 SSW 1010,3 51 18 0,0
11.11.2018 08:00:00 8,6 8,1 7,8 9,3 10,2 12,2 22 12 33 18 SSW 1009,8 68 0 0,0
11.11.2018 07:00:00 8,9 8,7 8,5 9,5 10,3 12,2 21 12 34 18 S 1009,1 42 0 0,2
11.11.2018 06:00:00 9,0 8,8 8,7 9,6 10,3 12,2 24 13 36 20 SSW 1008,2 14 0 1,6
11.11.2018 05:00:00 9,4 9,1 9,0 9,7 10,3 12,2 16 9 26 14 SSW 1008,3 20 0 0,5
11.11.2018 04:00:00 9,8 9,7 9,4 9,8 10,4 12,2 19 10 27 15 SSW 1008,2 13 0 0,6
11.11.2018 03:00:00 10,0 9,9 9,7 9,7 10,4 12,2 16 8 30 16 SSW 1008,5 11 0 0,0
11.11.2018 02:00:00 10,0 9,8 9,5 9,8 10,5 12,2 22 12 35 19 SW 1008,5 22 0 0,0
11.11.2018 01:00:00 9,4 9,2 8,8 10,0 10,5 12,3 18 10 28 15 SSW 1008,1 43 0 0,0
11.11.2018 00:00:00 9,8 9,5 9,5 10,2 10,6 12,3 17 9 29 16 SSW 1007,9 55 0 0,0
10.11.2018 23:00:00 9,6 9,3 9,3 10,4 10,6 12,3 14 8 28 15 SSW 1007,6 47 0 0,9
10.11.2018 22:00:00 9,8 9,4 9,5 10,6 10,6 12,3 21 12 35 19 SSW 1007,2 26 0 0,7
10.11.2018 21:00:00 10,7 10,7 10,5 10,7 10,6 12,3 16 8 36 19 SSW 1006,8 7 0 1,2
10.11.2018 20:00:00 10,8 10,7 10,5 10,8 10,5 12,3 18 10 43 23 SW 1006,8 5 0 2,8
10.11.2018 19:00:00 11,3 11,2 11,1 10,8 10,5 12,3 25 14 42 23 SSW 1006,4 8 0 0,2
10.11.2018 18:00:00 11,2 11,1 11,0 10,9 10,4 12,3 23 13 41 22 SSW 1006,1 6 0 0,1
10.11.2018 17:00:00 11,4 11,2 11,1 10,9 10,4 12,3 21 11 37 20 S 1006,2 25 0 0,3
10.11.2018 16:00:00 11,4 11,2 11,2 11,0 10,3 12,3 22 12 48 26 S 1006,4 13 0 0,4
10.11.2018 15:00:00 11,4 11,1 11,3 10,9 10,2 12,3 27 14 42 23 SSW 1006,5 18 0 1,2
10.11.2018 14:00:00 11,3 11,2 11,2 10,9 10,1 12,3 24 13 40 22 SSW 1006,6 7 0 1,8
10.11.2018 13:00:00 11,6 11,2 11,3 10,8 10,0 12,3 24 13 41 22 SSW 1006,7 16 0 0,5
10.11.2018 12:00:00 11,5 11,0 11,4 10,4 9,9 12,3 24 13 35 19 SSW 1007,3 18 0 0,8
10.11.2018 11:00:00 11,0 10,5 10,8 10,1 9,9 12,3 19 11 26 14 SSW 1007,8 14 0 0,5
10.11.2018 10:00:00 10,9 10,2 10,5 9,8 9,8 12,3 15 8 25 14 S 1007,6 28 0 0,2
10.11.2018 09:00:00 10,7 10,0 10,2 9,6 9,8 12,3 19 11 45 25 SSW 1007,7 25 0 0,9
10.11.2018 08:00:00 12,4 8,5 11,2 9,4 9,8 12,3 29 16 45 25 SSW 1007,0 23 0 0,0
10.11.2018 07:00:00 12,7 7,8 11,9 9,2 9,8 12,3 29 16 47 26 SSW 1006,5 66 0 0,0
10.11.2018 06:00:00 12,3 6,9 11,4 9,1 9,8 12,3 29 16 44 24 SSW 1006,5 73 0 0,0
10.11.2018 05:00:00 11,5 6,1 10,6 9,2 9,9 12,3 19 10 31 17 S 1007,1 63 0 0,0
10.11.2018 04:00:00 11,2 6,1 10,4 9,2 9,9 12,3 16 9 24 13 S 1007,8 67 0 0,0
10.11.2018 03:00:00 11,5 6,2 10,6 9,2 9,9 12,3 18 10 24 13 S 1008,0 62 0 0,0
10.11.2018 02:00:00 10,9 6,7 10,1 9,2 10,0 12,3 14 8 25 13 SSW 1008,7 49 0 0,0
10.11.2018 01:00:00 10,6 7,2 9,8 9,3 10,0 12,3 18 10 24 13 S 1009,6 34 0 0,0
10.11.2018 00:00:00 10,3 7,9 9,7 9,3 10,0 12,3 12 7 21 11 S 1010,4 21 0 0,0

tt = Température de l'air
td = dewpoint
tt 5cm = Température de l'air 5cm
tt -5cm = Température de l'air -5cm
tt -20cm = Température de l'air -20cm
tt -100cm = Température de l'air -100cm
ff = Vitesse du vent
fx = gusts
dd = Direction du vent
ppp = reduced air pressure
vv = visibility
sd = Ensoleillement
rr = Quantités de précipitations

stations d'obs. à proximité